TimeEST,TemperatureF,Dew PointF,Humidity,Sea Level PressureIn,VisibilityMPH,Wind Direction,Wind SpeedMPH,Gust SpeedMPH,PrecipitationIn,Events,Conditions,WindDirDegrees,DateUTC
12:51 AM,33.1,26.1,75,30.25,10.0,NE,3.5,-,N/A,,Clear,50,2012-11-22 05:51:00
1:51 AM,32.0,26.1,79,30.26,10.0,North,3.5,-,N/A,,Clear,10,2012-11-22 06:51:00
2:51 AM,30.9,25.0,79,30.25,10.0,North,4.6,-,N/A,,Clear,10,2012-11-22 07:51:00
3:51 AM,30.0,25.0,82,30.25,10.0,NNE,3.5,-,N/A,,Clear,20,2012-11-22 08:51:00
4:51 AM,28.9,25.0,85,30.26,10.0,NNW,4.6,-,N/A,,Clear,330,2012-11-22 09:51:00
5:51 AM,27.0,23.0,85,30.26,10.0,Calm,Calm,-,N/A,,Clear,0,2012-11-22 10:51:00
6:51 AM,30.9,26.1,82,30.27,10.0,North,4.6,-,N/A,,Partly Cloudy,350,2012-11-22 11:51:00
7:51 AM,32.0,27.0,82,30.28,10.0,North,4.6,-,N/A,,Partly Cloudy,360,2012-11-22 12:51:00
8:51 AM,37.0,28.9,73,30.29,10.0,NNE,5.8,-,N/A,,Clear,30,2012-11-22 13:51:00
9:51 AM,43.0,30.9,62,30.29,10.0,Calm,Calm,-,N/A,,Clear,0,2012-11-22 14:51:00
10:51 AM,46.0,33.1,61,30.26,10.0,Calm,Calm,-,N/A,,Partly Cloudy,0,2012-11-22 15:51:00
11:51 AM,50.0,36.0,59,30.23,10.0,Calm,Calm,-,N/A,,Clear,0,2012-11-22 16:51:00
12:51 PM,51.1,36.0,56,30.21,10.0,Calm,Calm,-,N/A,,Clear,0,2012-11-22 17:51:00
1:51 PM,54.0,35.1,49,30.19,10.0,Calm,Calm,-,N/A,,Partly Cloudy,0,2012-11-22 18:51:00
2:51 PM,55.0,33.1,43,30.18,10.0,Calm,Calm,-,N/A,,Partly Cloudy,0,2012-11-22 19:51:00
3:51 PM,52.0,33.1,49,30.18,10.0,Calm,Calm,-,N/A,,Partly Cloudy,0,2012-11-22 20:51:00
4:51 PM,50.0,34.0,54,30.18,10.0,Calm,Calm,-,N/A,,Clear,0,2012-11-22 21:51:00
5:51 PM,44.1,33.1,65,30.19,10.0,Calm,Calm,-,N/A,,Clear,0,2012-11-22 22:51:00
6:51 PM,39.0,32.0,76,30.18,10.0,Calm,Calm,-,N/A,,Clear,0,2012-11-22 23:51:00
7:51 PM,36.0,30.0,79,30.17,10.0,Calm,Calm,-,N/A,,Clear,0,2012-11-23 00:51:00
8:51 PM,35.1,30.0,82,30.17,10.0,Calm,Calm,-,N/A,,Clear,0,2012-11-23 01:51:00
9:51 PM,34.0,30.0,85,30.16,10.0,Calm,Calm,-,N/A,,Clear,0,2012-11-23 02:51:00
10:51 PM,34.0,30.0,85,30.14,10.0,Calm,Calm,-,N/A,,Clear,0,2012-11-23 03:51:00
11:51 PM,30.0,28.0,92,30.13,10.0,Calm,Calm,-,N/A,,Clear,0,2012-11-23 04:51:00